星链-1330 (STARLINK-1330 )

导读

STARLINK-1330是美国太空探索技术公司 SpaceX 星链星座的第1330颗卫星,于2020年4月22日发射入轨,属于星链低轨互联网卫星项目,承担全球卫星互联网通信组网任务,依托低轨道部署实现高速网络覆盖,服务地面偏远地区与移动场景,推动全球互联基础设施建设。

基本信息
目录编号:
45577
目录名称:
STARLINK-1330
国际标识:
2020-025AY
轨道中心:
EARTH
卫星名称:
星链-1330
卫星全名:
星链-1330 (STARLINK-1330 )
卫星状态:
已陨落 最后检测时间 2023-11-21
发射日期:
2020-04-22 UTC
国别 :
美国 (US)
星等 :
--
轨道信息
数据来源 国际轨道数据
星历时间: 2023-11-22T08:16:30+0800
轨道信息已过期935天
半长轴: 6539.616km
偏心率: 0.0006805
轨道倾角: 52.979°
近地点辐角 260.899°
升交点赤经 164.643°
平近点角 178.317°
近地点: 157.03km
远地点: 165.932km
周期: 87.718分钟
每日圈数: 16.416269
详细信息
固有亮度:
5
最大亮度:
2.5
卫星平台:
Starlink V1.0
覆盖范围:
全球
运营商:
太空探索技术公司
运营商所在国:
美国
制造商(研发单位):
太空探索技术公司
制造商所在国:
美国
使用方式:
暂无
卫星简介
星链(Starlink)计划是由太空探索技术公司(SpaceX)提出的一个巨型低轨卫星互联网星座项目,计划在2019年至2024年间在太空搭建由约1.2万颗卫星组成的“星链”网络,其中1584颗将部署在地球上空550千米处的近地轨道,并从2020年开始工作。该卫星已陨落。